カタログに戻る

COSMOS 2255

運用中軍事PO
NORAD 22690·PAYLOAD·🇷🇺 Russia

打ち上げ Jun 24, 1993 から Plesetsk Cosmodrome

Loading…

次のパス (今後24時間)

TLE

最新Source: Space-Track

元期: Sep 14, 2026, 04:43 UTC

1 22690U 93038D   26257.19672370  .00000031  00000-0  11166-3 0  9991
2 22690  82.5886 172.7769 0006344 130.9426  37.1013 12.63329450532469

AllMySatでCOSMOS 2255をリアルタイム追跡

Download on the App Store